Weather History for KINK - November, 2012

Change the Weather History Date:

Saturday, November 17, 2012

  Actual Average Record
Temperature  
Mean Temperature 60 °F -  
Max Temperature 68 °F 67 °F 84 °F (1948)
Min Temperature 51 °F 37 °F 19 °F (2014)
Degree Days  
Heating Degree Days 6    
Growing Degree Days 10 (Base 50)    
Moisture  
Dew Point 46 °F    
Average Humidity 66    
Maximum Humidity 82    
Minimum Humidity 45    
Precipitation  
Precipitation 0.00 in - - ()
Sea Level Pressure  
Sea Level Pressure 30.16 in    
Wind  
Wind Speed 9 mph (SE)    
Max Wind Speed 15 mph    
Max Gust Speed 22 mph    
Visibility 10 miles    
Events      
Averages and records for this station are not official NWS values.
T = Trace of Precipitation, MM = Missing Value Source: NWS Daily Summary

Daily Weather History Graph

Daily Weather History Graph

Search for Another Location

Airport or City:

Trip Planner

Search our weather history database for the weather conditions in past years. The results will help you decide how hot, cold, wet, or windy it might be!

Date:

Astronomy

Nov. 17, 2012 Rise Set
Actual Time 7:23 AM CST 5:52 PM CST
Civil Twilight 6:57 AM CST 6:18 PM CST
Nautical Twilight 6:27 AM CST 6:47 PM CST
Astronomical Twilight 5:58 AM CST 7:16 PM CST
Moon 11:09 AM CST (11/17) 10:03 PM CST (11/17)
Length of Visible Light 11h 20m
Length of Day
10h 28m
Waxing Crescent, 20% of the Moon is Illuminated
Nov 17
Waxing Crescent
Nov 20
First Quarter
Nov 28
Full
Dec 6
Last Quarter
Dec 13
New

Hourly Weather History & Observations

Time (CST) Temp. Dew Point Humidity Pressure Visibility Wind Dir Wind Speed Gust Speed Precip Events Conditions
12:50 AM 51.8 °F 46.4 °F 82% 30.25 in 10.0 mi SSE 5.8 mph - N/A   Overcast
12:53 AM 52.0 °F 46.0 °F 80% 30.19 in 10.0 mi SSE 5.8 mph - N/A   Overcast
1:53 AM 54.0 °F 48.0 °F 80% 30.17 in 10.0 mi SSE 9.2 mph 16.1 mph N/A   Overcast
2:49 AM 53.6 °F 46.4 °F 77% 30.24 in 10.0 mi SE 4.6 mph - N/A   Mostly Cloudy
2:53 AM 53.1 °F 46.9 °F 80% 30.17 in 10.0 mi SE 5.8 mph - N/A   Scattered Clouds
3:53 AM 52.0 °F 46.0 °F 80% 30.15 in 10.0 mi ESE 9.2 mph - N/A   Clear
4:42 AM 51.8 °F 46.4 °F 82% 30.21 in 10.0 mi SE 10.4 mph - N/A   Mostly Cloudy
4:53 AM 53.1 °F 46.0 °F 77% 30.14 in 10.0 mi SE 10.4 mph - N/A   Overcast
5:53 AM 53.1 °F 45.0 °F 74% 30.14 in 10.0 mi SE 9.2 mph - N/A   Overcast
6:53 AM 52.0 °F 44.1 °F 74% 30.17 in 10.0 mi ESE 6.9 mph - N/A   Overcast
7:30 AM 51.8 °F 42.8 °F 71% 30.23 in 10.0 mi ESE 6.9 mph - N/A   Overcast
7:53 AM 51.1 °F 43.0 °F 74% 30.19 in 10.0 mi ESE 5.8 mph - N/A   Overcast
8:45 AM 53.6 °F 46.4 °F 77% 30.25 in 10.0 mi SE 12.7 mph - N/A   Scattered Clouds
8:53 AM 54.0 °F 46.0 °F 75% 30.19 in 10.0 mi SE 11.5 mph - N/A   Partly Cloudy
9:27 AM 55.4 °F 48.2 °F 77% 30.26 in 10.0 mi SSE 12.7 mph - N/A   Mostly Cloudy
9:51 AM 55.4 °F 48.2 °F 77% 30.26 in 10.0 mi SSE 11.5 mph - N/A   Mostly Cloudy
9:53 AM 55.9 °F 48.0 °F 75% 30.20 in 10.0 mi SSE 11.5 mph - N/A   Mostly Cloudy
10:40 AM 59.0 °F 48.2 °F 67% 30.25 in 10.0 mi SSE 9.2 mph 17.3 mph N/A   Scattered Clouds
10:53 AM 60.1 °F 48.0 °F 64% 30.19 in 10.0 mi SE 10.4 mph - N/A   Clear
11:53 AM 64.0 °F 48.0 °F 56% 30.18 in 10.0 mi SSE 6.9 mph - N/A   Clear
12:53 PM 64.0 °F 46.9 °F 54% 30.14 in 10.0 mi SSE 10.4 mph - N/A   Clear
1:53 PM 66.9 °F 46.9 °F 49% 30.11 in 10.0 mi SSE 11.5 mph - N/A   Clear
2:53 PM 68.0 °F 46.0 °F 45% 30.08 in 10.0 mi SE 8.1 mph - N/A   Clear
3:53 PM 66.9 °F 46.0 °F 47% 30.08 in 10.0 mi SE 11.5 mph - N/A   Clear
4:53 PM 64.9 °F 46.0 °F 50% 30.09 in 10.0 mi SE 10.4 mph - N/A   Clear
5:53 PM 64.0 °F 46.0 °F 52% 30.08 in 10.0 mi SE 9.2 mph - N/A   Partly Cloudy
6:53 PM 63.0 °F 45.0 °F 52% 30.09 in 10.0 mi SSE 8.1 mph - N/A   Overcast
7:53 PM 62.1 °F 45.0 °F 53% 30.10 in 10.0 mi SE 9.2 mph - 0.00 in   Mostly Cloudy
8:53 PM 62.1 °F 45.0 °F 53% 30.09 in 10.0 mi SE 15.0 mph - N/A   Partly Cloudy
9:53 PM 60.1 °F 44.1 °F 55% 30.08 in 10.0 mi SSE 15.0 mph 21.9 mph N/A   Clear
10:53 PM 59.0 °F 44.1 °F 58% 30.07 in 10.0 mi SE 15.0 mph - N/A   Clear
11:53 PM 57.9 °F 44.1 °F 60% 30.06 in 10.0 mi SE 11.5 mph - N/A   Clear